Regional Weather Roundup
Issued by NWS

Home | Current Version | Previous Version | Text Only | Print | Product List | Glossary On
Versions: 1 2 3 4 5 6 7 8 9 10 11 12 13 14 15 16 17 18 19 20 21 22 23 24 25 26 27 28 29 30 31 32 33 34 35 36 37 38 39 40 41 42 43 44 45 46 47 48 49 50
000
ASUS44 KFWD 181715
RWRTX
NORTH TEXAS HOURLY WEATHER ROUNDUP
NATIONAL WEATHER SERVICE FORT WORTH TX
1200 PM CDT SAT APR 18 2015

NOTE: "FAIR" INDICATES FEW OR NO CLOUDS BELOW 12,000 FEET WITH NO
SIGNIFICANT WEATHER AND/OR OBSTRUCTIONS TO VISIBILITY.

TXZ118-119-181800-
DALLAS/FORT WORTH METROPLEX

CITY           SKY/WX    TMP DP  RH WIND       PRES   REMARKS
DFW AIRPORT    PTSUNNY   74  63  68 S6        29.90S
DALLAS LOVE    MOSUNNY   76  61  59 CALM      29.90S
FTW MEACHAM    MOSUNNY   72  64  76 S6        29.90F
DAL-EXECUTIVE  PTSUNNY   74  63  68 CALM      29.90S
FTW-ALLIANCE   PTSUNNY   75  63  66 VRB5      29.91F
FTW-NAS-JRB    PTSUNNY   75  65  70 S9        29.95R
FTW-SPINKS     PTSUNNY   73  64  73 S6        29.93S
ARLINGTON      MOSUNNY   75  61  61 SW6       29.91S
GRAND PRAIRIE  MOSUNNY   73  63  68 W3        29.92S
ADDISON        PTSUNNY   75  61  60 CALM      29.91F
MESQUITE       MOSUNNY   75  63  64 CALM      29.91F
LANCASTER      MOSUNNY   73  63  70 CALM      29.92R
$$

TXZ091>094-102>105-117-120-121-131>134-181800-
NORTH CENTRAL TEXAS

CITY           SKY/WX    TMP DP  RH WIND       PRES   REMARKS
SHRMAN/DENISON SUNNY     74  65  71 SE3       29.93F
GAINESVILLE    PTSUNNY   72  62  70 SE5       29.94S
BOWIE          CLOUDY    67  62  84 SE3       29.92S
BRIDGEPORT     PTSUNNY   68  65  92 S7        29.93F
DECATUR        CLOUDY    67  63  85 SW3       29.93S
DENTON         PTSUNNY   72  62  71 SW3       29.91S
MCKINNEY       SUNNY     75  62  64 VRB5      29.91F
GREENVILLE     MOSUNNY   73  63  68 E3        29.91F
ROCKWALL       SUNNY     74  63  67 CALM      29.90S
TERRELL        MOSUNNY   75  62  64 CALM      29.91F
WAXAHACHIE     PTSUNNY   73  66  78 S3        29.92S HAZE
CLEBURNE       PTSUNNY   72  66  83 VRB5      29.94S
GRANBURY         N/A     73  63  72 S3        29.93S
$$

TXZ083>090-098>101-113>116-127>130-139>142-154-155-181800-
WESTERN NORTH TEXAS

CITY           SKY/WX    TMP DP  RH WIND       PRES   REMARKS
WICHITA FALLS  MOSUNNY   67  61  81 MISG      29.90F
WF-KICKAPOO    MOSUNNY   69  62  79 CALM      29.91F
VERNON         CLOUDY    68  58  70 W7        29.91S
ABILENE        MOSUNNY   74  62  66 VRB6      29.91F
ABILENE-DYESS  MOSUNNY   72  60  66 VRB7      29.89F
BRECKENRIDGE   MOSUNNY   77  60  55 SW9       29.90S
GRAHAM         MOSUNNY   72  64  76 S5        29.89F
MINERAL WELLS  CLOUDY    67  62  84 S6        29.90F
STEPHENVILLE   PTSUNNY   71  63  74 SE7       29.95F
COMANCHE       PTSUNNY   74  66  76 SE8       29.93S
BROWNWOOD      PTSUNNY   72  63  73 SE3       29.92F
COLEMAN        MOSUNNY   73  62  68 S6        29.93F
BRADY          PTSUNNY   66  61  82 NE5       29.92F
$$

TXZ143>147-156>162-174-175-181800-
CENTRAL TEXAS

CITY           SKY/WX    TMP DP  RH WIND       PRES   REMARKS
WACO           PTSUNNY   73  65  75 CALM      29.92S
WACO-TSTC      CLOUDY    72  64  78 CALM      29.92S
WACO-MCGREGOR  CLOUDY    72  63  73 CALM      29.93F
HILLSBORO      CLOUDY    70  63  77 SW6       29.93S
CORSICANA      PTSUNNY   74  64  71 VRB3      29.92R
MEXIA          CLOUDY    71  66  84 SE5       29.91S
HEARNE         CLOUDY    70  67  90 CALM      29.92F
CAMERON        CLOUDY    74  67  78 CALM      29.90F
TEMPLE         CLOUDY    70  63  78 CALM      29.92F
KILLEEN        CLOUDY    70  64  83 VRB2      29.92F
FORT HOOD      CLOUDY    68  65  90 N3        29.92F
GATESVILLE     PTSUNNY   70  64  83 CALM      29.95F
HAMILTON       CLOUDY    71  65  82 SE9       29.95S
LAMPASAS       CLOUDY    71  65  81 SE6       29.93F
$$

TXZ095>097-106>112-122>126-135>138-148>153-164>167-181800-
EAST TEXAS

CITY           SKY/WX    TMP DP  RH WIND       PRES   REMARKS
PARIS          MOSUNNY   73  63  68 MISG      29.93F
SULPHUR SPRNGS   N/A     73  65  77 E5        29.94S
MOUNT PLEASANT CLOUDY    73  67  82 E5        29.92S
GILMER         CLOUDY    71  66  84 E3        29.91S
TYLER          CLOUDY    76  65  68 N3        29.89S
LONGVIEW       PTSUNNY   73  65  75 SE3       29.89S
MARSHALL       CLOUDY    71  68  88 NE3       29.93S
ATHENS         PTSUNNY   73  63  68 CALM      29.90S
PALESTINE      CLOUDY    75  69  80 SE3       29.91S
JACKSONVILLE   CLOUDY    73  65  77 S3        29.93R
HENDERSON      PTSUNNY   74  66  76 S6        29.91S
NACOGDOCHES    PTSUNNY   73  64  73 SW9       29.90F
LUFKIN         PTSUNNY   77  67  71 SW7       29.90F
$$

SUPPLEMENTAL OBSERVATIONS (CENTRAL)

CITY           SKY/WX    TMP DP  RH WIND       PRES   REMARKS
LAKE TEXOMA      N/A    N/A N/A N/A N2          N/A
CADDO GRASSLND   N/A     73  63  68 SE3         N/A
PAT MAYSE LAKE   N/A     72  63  73 NE5         N/A
GREENVILLE       N/A     73  63  68 E5          N/A
CEDAR HILL       N/A     75  63  64 SW5         N/A
ATHENS           N/A     77  63  61 E1          N/A
LAKE LIMESTONE   N/A     73  64  73 E2          N/A
MCGREGOR         N/A     73  64  73 CALM        N/A
TEMPLE           N/A     72  64  78 NW1         N/A
$$

SUPPLEMENTAL OBSERVATIONS (WEST)

CITY           SKY/WX    TMP DP  RH WIND       PRES   REMARKS
MILLERS CREEK    N/A     73  63  68 SW9         N/A
POSSUM KINGDOM   N/A     75  64  69 E6          N/A
LBJ GRASSLAND    N/A     68  63  83 S3          N/A
GRANBURY         N/A     73  64  73 S6          N/A
COMANCHE         N/A     73  63  68 SE8         N/A
HAMBY            N/A    N/A N/A N/A SW5G17      N/A
IVIE RESERVOIR   N/A    N/A N/A N/A SE7         N/A
COLORADO BEND    N/A    N/A N/A N/A N5          N/A
$$

SUPPLEMENTAL OBSERVATIONS (EAST)

CITY           SKY/WX    TMP DP  RH WIND       PRES   REMARKS
CLARKSVILLE      N/A     73  70  88 E3          N/A
TEXARKANA        N/A     66  63  88 NE5         N/A
LINDEN           N/A     70  66  88 E3          N/A
CADDO LAKE       N/A     66  64  94 NW2         N/A
GILMER           N/A     72  64  78 SE5         N/A
HENDERSON        N/A     75  66  73 S3          N/A
LUFKIN           N/A     75  66  73 MISG        N/A
N SABINE NF      N/A     72  70  94 MISG        N/A
S SABINE NF      N/A     72  66  83 CALM        N/A
$$

SUPPLEMENTAL OBSERVATIONS ARE A COLLECTION OF AUTOMATED INSTRUMENTS
THAT ARE MAINTAINED BY A VARIETY OF FEDERAL AND STATE AGENCIES.
CERTAIN ELEMENTS...SUCH AS HUMIDITY VALUES AND SUSTAINED WIND
SPEEDS...MAY BE APPROXIMATED.



USA.gov is the U.S. government's official web portal to all federal, state and local government web resources and services.